Погода Мыс Биллингс

Погода Мыс Биллингс : погода сейчас, прогноз погоды и архив. Всё, что Вы хотите узнать о погоде Мыс Биллингс!

Поиск расширенной информации на нашем сайте:

Другие новости

Новости СМИ2

Главная страница сайта

Новости сайта

02.10.2013

Напоминаем, что на нашем новом сайте вы можете получить высокодетализированные прогнозы погоды по пунктам России, СНГ и мира (включающие важные для авиации метеовеличины, такие как направление и скорость ветра, видимость, явления погоды, количество и форма облачности, нижняя и верхняя граница облачности), а также ознакомиться с разнообразными материалами по авиационной метеорологии и подборкой полезных ссылок на эту тему.

Сайт Метеоцентр.Азия посвящён разработке технологий оптимизации авиаметеорологического обслуживания, включая проектирование и перспективное создание нескольких автоматизированных авиаметеорологических систем:
- система выпуска высокодетальных прогностических карт явлений погоды для нижнего воздушного пространства по России и ближнему зарубежью;
- система верификации прогнозов TAF (выпускаемых синоптиками официальных АМСГ РФ и ближнего зарубежья) и AUTOTAF (выпускаемых сайтом Метеоцентр.Азия) - выявление ошибок, онлайн-сопоставление с фактической погодой METAR, автоматическое внесение коррективов в прогнозы при резком отклонении фактической погоды от прогноза, подсчёт оправдываемости прогнозов по элементам и в целом;
- система обработки, анализа и отображения авиаметеорологической информации для применения провайдерами метеорологической информации.


Погода Мыс Биллингс - сегодня

Время (UTC), дата Ветер
(°,м/с) 
Видим.   Явления Облачность Т
(°С)
Тd
(°С)
f(%) Тe
(°С)
Pmin
(гПа)
dP
(гПа)
Po
(мм)
O2
(г/м3)
Тmin Tmax R s Состояние
почвы
18 20.02.17 220 (ЮЗ) 3{05}  20000 м    4/0 верхняя 
[Ci fib]
-34.3 -37.8 71 -40  1024.4  1.3  768  356  -35.3      34  неравномерный
мокрый или
старый снег
100% 
21 20.02.17 240 (ЮЗ) 2{05}  20000 м    4/0 средняя 
[Ac trans]
-34.1 -37.8 69 -38  1025.8  1.4  769  356           
00 21.02.17 220 (ЮЗ) 3{06}  20000 м    4/0 средняя, верхняя 
[Ac trans|Ci fib]
-33.5 -37.2 69 -40  1027.1  1.3  770  356           
03 21.02.17 220 (ЮЗ) 3{06}  20000 м    4/0 средняя, верхняя 
[Ac trans|Ci fib]
-33.3 -36.9 70 -39  1028.6  1.5  771  356           
06 21.02.17 220 (ЮЗ) 3{05}  20000 м    4/0 средняя 
[Ac trans]
-33.8 -37.5 69 -40  1029.6  772  357    -33.3       
09 21.02.17 220 (ЮЗ) 3{05}  20000 м    4/0 средняя 
[Ac trans]
-34 -37.5 71 -40  1030.8  1.2  773  358           
12 21.02.17 220 (ЮЗ) 3{05}  20000 м    4/0 средняя 
[Ac trans]
-35.5 -39 70 -42  1031.6  0.8  773  360           
18 21.02.17 220 (ЮЗ) 3{05}  20000 м    ясно 
-36.3 -39.7 71 -43  1032.2  0.2  774  362  -36.3      34  неравномерный
мокрый или
старый снег
100% 
21 21.02.17 230 (ЮЗ) 3{05}  20000 м    ясно 
-37.3 -41.5 65 -44  1032.6  0.4  774  363           
00 22.02.17 210 (ЮЗ) 4{06}  20000 м    3/0 верхняя 
[Ci fib]
-35.9 -39.3 71 -44  1032.9  0.3  774  361           
03 22.02.17 220 (ЮЗ) 3{05}  20000 м    3/0 верхняя 
[Ci fib]
-35 -38.7 69 -41  1032.2  -0.7  774  360           
06 22.02.17 220 (ЮЗ) 4{06}  20000 м    ясно 
-35.8 -39.3 70 -44  1032.2  774  361    -35       
09 22.02.17 230 (ЮЗ) 3{05}  20000 м    ясно 
-36 -39.7 69 -42  1032.3  0.1  773  361           
12 22.02.17 230 (ЮЗ) 4{06}  20000 м    ясно 
-36 -39.7 69 -44  1032.4  0.1  774  361           
15 22.02.17 230 (ЮЗ) 3{05}  20000 м    ясно 
-35.6 -39 71 -42  1032.1  -0.3  774  361           
21 22.02.17 200 (Ю) 3{05}  20000 м    ясно 
-36.7 -40.4 68 -43  1032.7  0.5  774  363           
00 23.02.17 020 (С) 1{04}  20000 м    ясно 
-34.5 -38.1 70 -35  1032.9  0.2  774  359           
03 23.02.17 060 (СВ) 4{07}  20000 м    ясно 
-29.1 -31.5 80 -36  1030.7  -2.2  773  350           
06 23.02.17 100 (В) 3{06}  20000 м    ясно 
-30 -33 75 -36  1031.2  0.5  773  352    -29.1       
09 23.02.17 110 (В) 3{06}  20000 м    ясно 
-31 -34.2 73 -37  1031.4  0.2  773  353           
12 23.02.17 080 (В) 9-11{11}  4000 м  метель  8/8 600 м 
[Sc]
-23.7 -26.1 80 -34  1027.7  -3.7  770  342           
15 23.02.17 070 (В) 8-11{11}  4000 м  метель  8/8 600 м 
[Sc]
-23.6 -26.1 80 -33  1025.4  -2.3  769  341           
18 23.02.17 090 (В) 8-10{10}  4000 м  метель  8/8 600 м 
[Sc]
-22.5 -24.3 85 -32  1023.3  -2.1  767  339  -31      36  неравномерный
сухой снег
100% 
21 23.02.17 080 (В) 8-10{10}  4000 м  слаб. снег  10/10 600 м 
[Sc]
-22 -23.8 85 -31  1021.9  -1.4  766  337           
00 24.02.17 080 (В) 9-11{11}  4000 м  слаб. снег  9/9 600 м 
[Sc]
-21.3 -23.1 85 -31  1019.9  -2  765  336           
Время (UTC), дата Ветер
(°,м/с) 
Видим.   Явления Облачность Т
(°С)
Тd
(°С)
f(%) Тe
(°С)
Pmin
(гПа)
dP
(гПа)
Po
(мм)
O2
(г/м3)
Тmin Tmax R s Состояние
почвы

Для получения пояснительной информации подведите курсор к названию столбца.

ПОГОДА Мыс Биллингс - архив

Всё, что Вы хотите узнать о погоде Мыс Биллингс - удобно и подробно!

Выберите нужную дату (начиная с 1 января 2015* года) и нажмите кнопку "Найти".
Будут отображены архивные сводки погоды по пункту Мыс Биллингс, начиная с указанной даты.


Отображать данные в формате CSV (для использования в таблицах Excel)


Внимание! Наш архив погоды предназначен исключительно для личного некоммерческого использования в познавательных целях. Если Вам необходимы официальные справки о состоянии погоды (для производственных, юридических, коммерческих и т.п. целей), обращайтесь в органы Росгидромета.

*Примечание: данная дата относится к архиву по метеостанциям СССР (Россия, СНГ, Балтия).
Архив по метеостанциям Зарубежной Европы и Азии (кроме Китая) хранится 10 дней, по другим регионам земного шара (Китай, Африка, Америка, Австралия, Океания) - 1 день.

Мыс Биллингс - район местоположения метеостанции


Название, широта, долгота, высота метеостанции:
Мыс Биллингс 69.88°ш. 175.76°д. 3 м над ур. моря [Российская Федерация]

Дополнительная информация

В oтличие oт бoльшинства пoгoдных сайтoв мы публикуем пoдрoбную метеoинфoрмацию в детальнoм прoфессиoнальнoм фoрмате.

Характеристики температуры и влажнoсти вoздуха измеряются на высoте 2 м в тени вдали oт зданий и деревьев.
Скoрoсть ветра измеряется на высoте 10 м (на урoвне рoста челoвека скoрoсть ветра ниже в 1.5-2 раза). Если метеoстанция нахoдится в гoрoде или в лесу, тo скoрoсть ветра занижена на 2-4 м/с пo сравнению с oткрытым местoм. Скoрoсть ветра над акватoриями крупных рек и oзёр, а также на вершинах хoлмoв на 2-5 м/с выше, чем в oбычных услoвиях.
Атмoсфернoе давление в разных тoчках местнoсти мoжет значительнo oтличаться oт давления на метеoстанции, в зависимoсти oт услoвий рельефа (при пoдъёме на 10 м давление пoнижается примернo на 1 мм рт.ст.).